#timestamp,LO_Frequency,Hit,StdDev 
1553281215.3,286047001.2,N
1553281235.2,286046999.0,N
1553281255.0,286046998.5,N
1553281255.9,286046998.5,N
1553281275.8,286047001.0,N
1553281295.6,286047000.7,N
1553281315.4,286046999.0,N
1553281335.3,286046997.5,N
1553281355.1,286046998.0,N
1553281375.8,286046997.0,N
1553281395.7,286046999.5,N
1553281415.5,286046998.2,N
1553281435.4,286047000.0,N
1553281455.2,286046999.9,N
1553281475.0,286047002.4,N
1553281475.9,286047002.4,N
1553281495.8,286047001.5,N
1553281515.6,286047002.8,N
1553281535.4,286047000.8,N
1553281555.3,286047001.2,N
1553281575.1,286047000.5,N
1553281595.9,286047000.8,N
1553281615.7,286047000.4,N
1553281635.5,286047001.3,N
1553281655.4,286047004.2,N
1553281675.2,286047002.7,N
1553281695.0,286046999.8,N
1553281695.9,286046999.8,N
1553281715.8,286047000.6,N
1553281735.6,286047002.6,N
1553281755.5,286047001.9,N
1553281775.3,286047001.7,N
1553281795.1,286047002.0,N
1553281815.9,286047002.1,N
1553281835.7,286046999.7,N
1553281855.5,286047000.3,N
1553281875.4,286047001.1,N
1553281895.2,286046999.2,N
1553281915.1,286047001.0,N
1553281916.0,286047001.0,N
1553281935.8,286047001.0,N
1553281955.6,286047000.7,N
1553281975.5,286047002.5,N
1553281995.3,286047002.5,N
1553282015.1,286047003.3,N
1553282035.9,286047004.0,Y
1553282055.7,286047000.0,P
1553282075.6,286047002.4,P
1553282095.4,286046999.9,N
1553282115.2,286046996.9,Y
1553282135.1,286046996.1,P
1553282136.0,286046996.1,N
1553282155.8,286046995.4,N
1553282175.6,286046996.2,N
1553282195.5,286046993.5,Y
1553282215.3,286046996.8,P
1553282235.2,286046998.4,P
1553282255.9,286046998.1,N
1553282275.7,286047002.8,Y
1553282295.6,286047003.6,P
1553282315.4,286047004.0,N
1553282335.2,286047002.6,N
1553282355.1,286047002.8,N
1553282356.0,286047002.8,N
1553282375.8,286047001.4,N
1553282395.7,286047003.8,N
1553282415.5,286047009.2,Y
1553282435.3,286047005.9,P
1553282455.2,286047003.8,N
1553282475.0,286047003.4,N
1553282475.9,286047003.4,N
1553282495.8,286047003.7,Y
1553282515.6,286047001.1,P
1553282535.4,286046998.6,N
1553282555.3,286046998.3,N
1553282575.1,286046998.8,N
1553282595.8,286046996.6,N
1553282615.7,286046996.9,N
1553282635.5,286046998.1,N
1553282655.4,286046998.2,N
1553282675.2,286046996.8,N
1553282695.0,286046995.3,N
1553282695.9,286046995.3,N
1553282715.8,286046999.0,N
1553282735.6,286046999.0,N
1553282755.4,286046997.9,N
1553282775.3,286046997.3,N
1553282795.1,286046997.0,N
1553282815.8,286046997.2,N
1553282835.7,286046999.4,N
1553282855.5,286046998.8,N
1553282875.4,286047000.1,N
1553282925.2,286047000.7,E
1553282935.2,286047002.4,N
1553282955.9,286046999.3,P
1553282975.7,286046997.1,N
1553282995.6,286046995.9,N
1553283015.4,286046993.3,N
1553283035.3,286046994.1,N
1553283055.1,286046994.3,N
1553283056.0,286046994.3,N
1553283075.8,286046992.1,N
1553283095.7,286046993.6,N
1553283115.5,286046997.9,N
1553283135.3,286046998.7,N
1553283155.2,286046999.5,N
1553283175.0,286046999.1,N
1553283175.9,286046999.1,N
1553283195.8,286046998.9,N
1553283215.6,286047001.0,N
1553283235.4,286046999.5,N
1553283255.3,286046997.4,N
1553283275.1,286046996.8,N
1553283295.8,286046999.0,N
1553283315.7,286046999.3,N
1553283335.5,286046998.3,N
1553283355.4,286046999.8,N
1553283375.2,286046998.3,N
1553283395.0,286046998.9,N
1553283395.9,286046998.9,N
1553283415.8,286047011.9,Y
1553283435.6,286047001.5,P
1553283455.5,286047005.8,P
1553283475.3,286047003.8,N
1553283495.1,286047003.2,N
1553283515.9,286047003.2,N
1553283535.7,286047004.2,N
1553283555.6,286047002.1,N
1553283575.4,286047001.5,N
1553283595.2,286047001.6,N
1553283615.1,286047001.8,N
1553283616.0,286047001.8,N
1553283635.8,286047001.9,N
1553283655.7,286046999.9,N
1553283675.5,286046998.3,N
1553283695.3,286046998.9,N
1553283715.2,286046998.6,N
1553283735.9,286046999.8,N
1553283755.7,286046999.7,N
1553283775.6,286047003.1,N
1553283795.4,286047004.2,N
1553283815.3,286047001.6,N
1553283835.1,286047002.6,N
1553283836.0,286047002.6,N
1553283855.8,286046998.7,N
1553283875.7,286046998.2,N
1553283895.5,286046998.4,N
1553283915.3,286046998.3,N
1553283935.2,286047001.2,N
1553283955.0,286047003.9,N
1553283955.9,286047003.9,N
1553283975.8,286047001.8,N
1553283995.6,286047001.9,N
1553284015.4,286047002.5,N
1553284035.3,286047002.3,N
1553284055.1,286047001.1,N
1553284075.8,286047001.5,N
1553284095.7,286047002.7,N
1553284115.5,286047002.3,N
1553284135.4,286047001.9,N
1553284155.2,286047004.0,N
1553284175.0,286047002.7,N
1553284175.9,286047002.7,N
1553284195.8,286047002.5,N
1553284215.6,286047002.5,N
1553284235.4,286047001.2,N
1553284255.3,286046999.7,N
1553284275.1,286047002.2,N
1553284295.9,286047002.4,N
1553284315.7,286047002.5,N
1553284335.5,286047001.3,N
1553284355.4,286047003.4,N
1553284375.2,286047004.0,N
1553284395.0,286047004.2,N
1553284395.9,286047004.2,N
1553284415.8,286047003.8,N
1553284435.6,286047004.2,N
1553284455.5,286047002.5,N
1553284475.3,286047000.2,N
1553284495.1,286047001.9,N
1553284515.9,286047001.6,N
1553284535.7,286046999.9,N
1553284555.5,286047001.9,N
1553284575.4,286046999.9,N
1553284595.2,286047001.4,N
1553284615.1,286047004.4,Y
1553284616.0,286047004.4,P
1553284635.8,286046999.1,N
1553284655.6,286046999.0,N
1553284675.5,286046999.2,N
1553284695.3,286047001.2,N
1553284715.1,286046998.9,N
1553284735.9,286046994.9,N
1553284755.7,286046999.6,N
1553284775.6,286046999.3,N
1553284795.4,286046997.6,N
